CZ-4C DEB, 45484

Orbit data source: Space-Track

CZ-4C DEB, 45484 is space debris in LEO originally from a launch on Tue, 10 Apr 2018 UTC launched from the Jiuquan Satellite Launch Center, China (JSC). Debris objects in space refer to the collection of defunct objects orbiting the Earth. Examples of debris include non-operational satellites, rocket bodies, and fragments generated from explosions, collisions, or faulty payload assembly.

Loading next visibility...
Identifier
45484, 2018-034M
Orbit
LEO
Country
Flag of CNCN / PRC
Related business
Manufacturer
Unknown
Mission
Spacecraft
Bus & Motor
Unknown
Mass
Unknown
Launch date (UTC)
2018-04-10 (8 years ago)
Launch vehicle
Unknown
Launch site
Jiuquan Satellite Launch Center, China (JSC)
Object type
Payload
Rocket body
Debris
Shape & HBR
Unknown shape, 0.1 m
Radar Cross Section
Small (<0.1 m²)

Expand to show TLE details & history
Last TLE update: 2 days ago

TLE from 2 days ago
0 CZ-4C DEB
1 45484U 18034M   26126.53739166 -.00000063  00000-0  38045-4 0  9992
2 45484  63.3889 228.7923 0262126   8.5667 351.9704 13.42940925361815
Epoch: 2026-05-06T12:53Z
TLE epoch observation values (Epoch: 2026-05-06T12:53:50.639Z)
Latitude
-0.00001°
Longitude
170.93484°
Altitude
906.137 km
Speed
7.495 km/s
True Right ascension
15h 15m 10s
True Declination
0° 00' 00"
Sunlit
Object was in full shadow at epoch
Visualization orbit readout
Latitude
Unknown
Longitude
Unknown
Altitude
Unknown
Speed
Unknown
Apparent Right ascension
Unknown
Apparent Declination
Unknown
Sunlit
N/A
Visualization observer readout
Local Sidereal Time
11:06:14
Azimuth
Unknown
Elevation
Unknown
Doppler factor
Unknown
Orbital elements
Apogee altitude
1,293.122 km
Perigee altitude
901.228 km
Semi-major axis
7,475.312 km
Eccentricity
0.02621
Inclination
63.3889°
RAAN
228.7923°
Arg. of periapsis
8.5667°
True anomaly
351.53678°
Mean anomaly
351.9704°
Eccentric anomaly
351.75502°
Mean motion
3.35814 °/min
Orbital period
107.2 mins
BSTAR
0.000038045
Loading maneuver chart data...
Computing Atmospheric mass density...
Loading historical data...
Loading historical data...
Loading historical data...
Loading historical data...
Loading historical data...
Loading historical data...
Loading historical data...

Documentation

Showing up to 5 results
|